This demonstration page uses our WeatherBlox Daily Observations layout. Learn more.

Left ArrowRight Arrow

31.84235, -102.49876

Hourly Observations for March 3, 2015

Temp ( °F °C ) Dew Point ( °F °C ) Humidity (%) Winds ( mph kmh ) Pressure ( in mb ) Visibility ( mi km ) Precip ( " mm )
12:53 am 00:53 Mostly Cloudy with Fog 39 3.9 38 3.3 96 96 SSE 6 9 30.00 1016 1 1 0.00 0.00
1:53 am 01:53 Mostly Cloudy with Fog 40 4.4 38 3.3 93 93 SSE 9 15 29.96 1015 1 1 0.00 0.00
2:53 am 02:53 Mostly Cloudy with Mist and Fog 42 5.6 40 4.4 92 92 S 16 26 29.93 1014 1 1 0.00 0.00
3:03 am 03:03 Mostly Cloudy with Mist and Fog 42 5.6 40 4.4 92 92 SSW 13 20 29.97 1015 1 2 0.00 0.00
3:12 am 03:12 Mostly Cloudy with Mist and Fog 42 5.6 40 4.4 92 92 SSW 13 20 29.97 1015 1 1 0.00 0.00
3:53 am 03:53 Mostly Cloudy with Fog 42 5.6 41 5 96 96 SSW 15 24 29.91 1013 1 1 0.00 0.00
4:48 am 04:48 Mostly Cloudy with Fog 43 6 41 5 93 93 S 14 22 29.94 1014 0 0 0.00 0.00
4:53 am 04:53 Mostly Cloudy with Fog 42 5.6 41 5 96 96 S 16 26 29.89 1012 0 0 0.00 0.00
5:53 am 05:53 Mostly Cloudy with Fog 42 5.6 41 5 96 96 S 9 15 29.89 1012 0 0 0.00 0.00
6:53 am 06:53 Mostly Cloudy with Fog 42 5.6 41 5 96 96 SSW 8 13 29.90 1013 0 0 0.00 0.00
7:53 am 07:53 Mostly Cloudy with Fog 43 6.1 41 5 93 93 SSW 7 11 29.89 1012 5 8 0.00 0.00
8:53 am 08:53 Mostly Cloudy with Fog 43 6.1 42 5.6 97 97 S 7 11 29.87 1012 0 0 0.00 0.00
9:04 am 09:04 Mostly Cloudy with Fog 44 6.7 42 5.6 93 93 SSW 7 11 29.94 1014 1 1 0.00 0.00
9:14 am 09:14 Mostly Cloudy with Fog 44 6.7 42 5.6 93 93 W 10 17 29.97 1015 0 0 0.00 0.00
9:53 am 09:53 Mostly Cloudy with Fog 44 6.7 42 5.6 93 93 S 5 7 29.88 1012 0 0 0.00 0.00
10:08 am 10:08 Cloudy with Fog 44 6.7 43 6.1 96 96 S 6 9 29.94 1014 1 1 0.00 0.00
10:20 am 10:20 Cloudy with Mist and Fog 44 6.7 43 6.1 96 96 SSE 7 11 29.94 1014 1 2 0.00 0.00
10:34 am 10:34 Cloudy with Mist and Fog 44 6.7 43 6.1 96 96 SSE 3 6 29.88 1012 3 4 0.00 0.00
10:49 am 10:49 Cloudy with Mist and Fog 45 7 43 6 93 93 Calm 29.94 1014 3 5 0.00 0.00
10:53 am 10:53 Cloudy with Mist and Fog 45 7.2 44 6.7 97 97 Calm 29.87 1012 4 6 0.00 0.00
11:43 am 11:43 Cloudy 48 8.9 44 6.7 86 86 S 3 6 29.88 1012 7 11 0.00 0.00
11:53 am 11:53 Mostly Cloudy with Mist and Fog 48 8.9 44 6.7 86 86 VRB 3 6 29.85 1011 6 10 0.00 0.00
12:14 pm 12:14 Hazy 49 9.4 44 6.7 83 83 Calm 29.88 1012 5 8 0.00 0.00
12:53 pm 12:53 Partly Cloudy 52 11.1 46 7.8 80 80 NNE 6 9 29.83 1010 8 13 0.00 0.00
1:53 pm 13:53 Sunny 56 13.3 47 8.3 72 72 ENE 5 7 29.78 1009 10 16 0.00 0.00
2:53 pm 14:53 Sunny 58 14.4 47 8.3 67 67 E 5 7 29.75 1008 10 16 0.00 0.00
3:53 pm 15:53 Sunny 58 14.4 47 8.3 67 67 NE 7 11 29.74 1007 10 16 0.00 0.00
4:53 pm 16:53 Sunny 58 14.4 47 8.3 67 67 ENE 9 15 29.74 1007 10 16 0.00 0.00
5:53 pm 17:53 Sunny 57 13.9 46 7.8 67 67 NNE 8 13 29.75 1008 10 16 0.00 0.00
6:53 pm 18:53 Clear 53 11.7 46 7.8 77 77 NNE 6 9 29.78 1008 10 16 0.00 0.00
7:53 pm 19:53 Cloudy 53 11.7 46 7.8 77 77 NNE 9 15 29.78 1009 10 16 0.00 0.00
8:53 pm 20:53 Mostly Cloudy 52 11.1 46 7.8 80 80 NE 6 9 29.80 1009 10 16 0.00 0.00
9:53 pm 21:53 Cloudy 51 10.6 46 7.8 83 83 E 3 6 29.81 1010 10 16 0.00 0.00
10:53 pm 22:53 Cloudy 51 10.6 46 7.8 83 83 N 5 7 29.82 1010 10 16 0.00 0.00
11:53 pm 23:53 Mostly Clear 48 8.9 45 7.2 89 89 E 6 9 29.80 1009 10 16 0.00 0.00

Powered by AerisWeather